Regional Weather Roundup
Issued by NWS

Home | Current Version | Previous Version | Text Only | Print | Product List | Glossary Off
Versions: 1 2 3 4 5 6 7 8 9 10 11 12 13 14 15 16 17 18 19 20 21 22 23 24 25 26 27 28 29 30 31 32 33 34 35 36 37 38 39 40 41 42 43 44 45 46 47 48 49 50

000
ASUS43 KMKX 221400
RWRWI

WISCONSIN REGIONAL WEATHER ROUNDUP
NATIONAL WEATHER SERVICE MILWAUKEE/SULLIVAN WI
800 AM CST MON DEC 22 2014

NOTE: "FAIR" INDICATES FEW OR NO CLOUDS BELOW 12,000 FEET WITH NO
SIGNIFICANT WEATHER AND/OR OBSTRUCTIONS TO VISIBILITY.

WIZ001-002-006>008-014>016-023>028-221500-
NORTHWEST WISCONSIN

CITY           SKY/WX    TMP DP  RH WIND       PRES   REMARKS
SUPERIOR ARPT  MIX PCPN  33  33  99 NE5       29.73R WCI  29
ASHLAND        CLOUDY    36  33  89 S6        29.77S WCI  31
HAYWARD        CLOUDY    34  32  92 SE9       29.74R FOG     WCI  27
SIREN          CLOUDY    35  34  96 SE10      29.70S FOG     WCI  27
CUMBERLAND     CLOUDY    32  32 100 SE14      29.71S FOG     WCI  22
RICE LAKE      CLOUDY    34  33  97 SE14      29.75R FOG     WCI  25
CHETEK         CLOUDY    34  33  97 SE10G16   29.75S FOG     WCI  26
LADYSMITH      CLOUDY    34  33  96 SE14      29.78S FOG     WCI  25
EAU CLAIRE     CLOUDY    35  32  88 SE8       29.76R FOG     WCI  29
MENOMONIE      CLOUDY    35  34  96 SE13      29.74S FOG     WCI  27
NEW RICHMOND   DRIZZLE   36  36 100 SE10G17   29.70S WCI  28
OSCEOLA        LGT RAIN  36  36 100 SE12      29.72S WCI  28
$$

WIZ003>005-009-010-017-018-221500-
NORTH CENTRAL WISCONSIN

CITY           SKY/WX    TMP DP  RH WIND       PRES   REMARKS
MANITOWISH WTR CLOUDY    32  32 100 SE7       29.79S FOG     WCI  25
ARBOR VITAE    CLOUDY    34  33  94 SE8       29.80S FOG     WCI  27
WOODRUFF       CLOUDY    34  33  94 SE8       29.80S FOG     WCI  27
RHINELANDER    CLOUDY    31  30  96 SE8G18    29.82S FOG     WCI  23
EAGLE RIVER    CLOUDY    32  32 100 SE7       29.82S FOG     WCI  25
LAND O LAKES   CLOUDY    32  32 100 SE6       29.82S FOG     WCI  26
PHILLIPS       CLOUDY    32  32  99 SE7       29.78R FOG     WCI  26
TOMAHAWK       CLOUDY    32  31  96 SE5       29.82S FOG     WCI  27
MEDFORD        CLOUDY    32  31  97 SE9       29.79S FOG     WCI  24
MERRILL        CLOUDY    32  32  99 S6        29.83S FOG     WCI  27
$$

WIZ029-030-035-036-043>047-221500-
CENTRAL WISCONSIN

CITY           SKY/WX    TMP DP  RH WIND       PRES   REMARKS
WAUSAU         CLOUDY    32  31  96 SE10      29.83S FOG     WCI  24
MOSINEE        CLOUDY    32  32 100 SE10      29.84S FOG     WCI  24
MARSHFIELD     CLOUDY    34  31  88 SE13      29.81F FOG     WCI  25
STEVENS POINT  CLOUDY    32  29  91 SE7       29.85F FOG     WCI  25
WAUPACA        CLOUDY    35  32  88 SE9       29.88F FOG     WCI  28
WAUTOMA        NOT AVBL
WISC RAPIDS    CLOUDY    34  29  82 SE7       29.85S WCI  28
CAMP DOUGLAS   NOT AVBL
$$

WIZ011>013-019>022-031-037>040-048>050-221500-
NORTHEAST WISCONSIN

CITY           SKY/WX    TMP DP  RH WIND       PRES   REMARKS
ANTIGO         CLOUDY    30  30  99 SE10      29.84S FOG     WCI  21
SHAWANO        LGT RAIN  35  32  88 S6        29.91R WCI  30
OCONTO         CLOUDY    34  34 100 SE7       29.93R WCI  28
STURGEON BAY   CLOUDY    36  30  80 S15       29.96S WCI  26
GREEN BAY      MIX PCPN  35  33  92 MISG      29.92S FOG
MANITOWOC      MIX PCPN  37  34  87 S13       29.95S WCI  29
APPLETON       DRIZZLE   34  34 100 SE12      29.90S FOG     WCI  25
CLINTONVILLE   LGT SNOW  32  32 100 SE7       29.89S WCI  26
OSHKOSH        CLOUDY    33  30  88 SE12      29.90F FOG     WCI  24
$$

WIZ032>034-041-042-053>061-221500-
SOUTHWEST WISCONSIN

CITY           SKY/WX    TMP DP  RH WIND       PRES   REMARKS
LA CROSSE      CLOUDY    38  32  79 SE12      29.77F WCI  30
SPARTA         CLOUDY    35  31  86 SE6       29.81F WCI  30
VIROQUA        CLOUDY    33  33 100 SE10      29.78S WCI  25
BOSCOBEL       CLOUDY    36  31  82 VRB5      29.81F HAZE    WCI  32
PRAIRIE DU CHI CLOUDY    35  31  86 E8        29.78F WCI  28
PLATTEVILLE    CLOUDY    34  32  92 SE12      29.81S WCI  26
$$

WIZ056-057-062-063-064-067-068-221500-
SOUTH CENTRAL WISCONSIN

CITY           SKY/WX    TMP DP  RH WIND       PRES   REMARKS
REEDSBURG      CLOUDY    33  32  93 SE5       29.83F WCI  29
BARABOO/DELLS  CLOUDY    33  31  92 SE10      29.83F FOG     WCI  25
LONE ROCK      NOT AVBL
MINERAL POINT  CLOUDY    34  32  93 SE10      29.80F FOG     WCI  26
MADISON        CLOUDY    34  29  82 SE10      29.85F HAZE    WCI  26
MIDDLETON      CLOUDY    35  32  90 SE9       29.85F WCI  27
WATERTOWN      CLOUDY    32  32  99 E9        29.89S FOG     WCI  24
MONROE         CLOUDY    32  32 100 SE9       29.83F FOG     WCI  24
JANESVILLE     CLOUDY    34  32  93 SE10      29.87F FOG     WCI  26
$$

WIZ051-052-058>065-066-070>072-221500-
SOUTHEAST WISCONSIN

CITY           SKY/WX    TMP DP  RH WIND       PRES   REMARKS
MILWAUKEE      MOCLDY    36  30  79 SE10      29.93F HAZE    WCI  28
WAUKESHA       CLOUDY    30  27  86 SE8       29.92F FOG     WCI  23
MILWAUKEE/TIMM CLOUDY    34  28  80 SE6       29.94F HAZE    WCI  29
RACINE         CLOUDY    36  31  82 SE9       29.94F HAZE    WCI  29
BURLINGTON     CLOUDY    30  27  86 SE5       29.91F FOG     WCI  25
KENOSHA        CLOUDY    34  30  85 SE8       29.92F FOG     WCI  27
FOND DU LAC    CLOUDY    33  30  88 SE8       29.90F FOG     WCI  26
SHEBOYGAN      CLOUDY    36  32  85 S10       29.93F FOG     WCI  28
WEST BEND      CLOUDY    32  28  86 SE6       29.92F HAZE    WCI  26
JUNEAU         MIX PCPN  32  31  96 E12       29.90S WCI  23
$$

LSZ147-162-221500-
LAKE SUPERIOR

STATION/POSITION TIME  TEMP    WIND        PRES    WAVE
                       AIR SEA DIR/SP/G            HT/PER
                 (UTC) (F)     (DEG/KT/KT) (MB)    (FT/S)
DEVILS ISLAND    1300   36     150/  9/ 11 1008.7R
PORT WING        1300   36     160/  4/  9 1007.1
SAXON HARBOR     1340   38     170/  4/ 12 1008.1F
$$

LMZ867-665-643>646-221500-
LAKE MICHIGAN

STATION/POSITION TIME  TEMP    WIND        PRES    WAVE
                       AIR SEA DIR/SP/G            HT/PER
                 (UTC) (F)     (DEG/KT/KT) (MB)    (FT/S)
CHAMBERS ISLAND  1300   37     130/  7/ 13 1014.2S
NORTHPORT PIER   1300   35     150/ 11/ 23 1014.6S
SISTER BAY       1313          170/ 16/ 20   N/A
ALGOMA LAKESHORE 1315          210/ 22/ 29   N/A
KEWAUNEE LAKESHO 1300   37     170/ 19/ 21 1013.4S
SHEBOYGAN LAKESH 1300   37 36  160/ 20/ 23 1014.8R
PORT WASHINGTON  1300   37     190/ 11/ 15 1015.2
MILWAUKEE LAKESH 1300   36     170/ 13/ 15   N/A
KENOSHA   LAKESH 1300   35     160/ 16/ 17 1013.9F
$$

TC  - TEMPERATURE IN CELSIUS
VSB - VISIBILITY IN STATUTE MILES
WCI - WIND CHILL INDEX
HX  - HEAT INDEX



USA.gov is the U.S. government's official web portal to all federal, state and local government web resources and services.